sat.trackr.live / text

‹ back to catalog

STARLINK-1821

NORAD 46718 · 2020-073BA

PAYLOAD ACTIVE UNKNOWN

§ Identity

Operator
Country
US
Launch date
2020-10-18
Launch site
AFETR
Launch vehicle
Mass (kg)
RCS (m²)

Purposes: comms

External: N2YO · Heavens-Above · Gunter

§ Orbital elements

Epoch: 2026-05-25T05:04:04.211040Z

Period
93.02 min
Inclination
53.0446°
Eccentricity
0.0002967
Mean motion
15.48116275 rev/d
Perigee alt
420.2 km
Apogee alt
424.3 km
Semi-major
6,800.4 km
B*
1.6659e-3
RAAN
223.0573°
Arg perigee
16.3459°
Mean anomaly
343.7643°
Rev number
30,916

§ Raw data

STARLINK-18211 46718U 20073BA  26145.21115985  .00089456  00000+0  16659-2 0  99982 46718  53.0446 223.0573 0002967  16.3459 343.7643 15.48116275309163

JSON: /api/v1/satellites/46718 · /tle

For live sub-satellite position, see the globe view (requires WebGL).

§ Visibility from observer

Set your observer location to see the next 7 days of passes ≥ 10°. The values pass through the URL so the page stays shareable.

No JS? Fill the form by hand. The geolocation button needs JavaScript.